Temp
17 16 16 16 16 16 16 16 16 16 15 15 15 15 15 15 15 15 15 14 14 14 14 14 14 14 14 14 14 14 14 14 14 14 14 14 14 14 14 14 14 13 13 13 13 13 13 13 13 13 13 12 12 12 12 12 12 12 12 12 12 11 11 11 11 10 10 10 10
17 17 16 16 16 16 16 16 16 16 15 15 15 15 15 15 15 15 15 14 14 14 14 14 14 14 14 14 14 15 14 14 14 14 14 14 14 14 14 14 13 13 13 13 13 13 13 13 13 13 12 12 12 12 12 12 12 12 12 11 11 11 11 11 10 10 10 10 10
17 17 16 16 16 16 16 16 16 16 16 15 15 15 15 15 15 15 15 15 15 14 14 14 14 14 14 14 14 15 14 14 14 14 14 14 14 14 14 13 13 13 13 13 13 13 13 13 13 12 12 12 12 12 12 11 11 11 11 11 11 11 11 10 10 10 10 10 10
17 17 17 16 16 16 16 16 16 16 16 15 15 15 15 15 15 15 15 15 14 14 14 14 14 14 14 14 14 14 14 14 14 14 14 14 14 14 13 13 13 13 13 13 13 13 13 13 12 12 12 12 11 11 11 11 11 11 11 11 11 10 10 10 10 10 10 10 9
17 17 17 17 17 16 16 16 16 16 16 16 15 15 15 15 15 15 15 15 14 14 14 14 14 14 14 14 14 14 14 14 14 14 13 13 13 13 13 13 13 13 13 13 13 13 13 13 12 12 12 11 11 11 11 11 11 11 11 10 10 10 10 10 10 9 9 9 9
17 17 17 17 17 17 16 16 16 16 16 16 16 15 15 15 15 15 15 15 14 14 14 14 14 14 14 14 14 14 13 13 13 13 13 13 13 13 13 13 13 13 13 12 12 13 13 12 12 12 11 11 11 11 11 11 11 10 10 10 10 10 10 10 10 9 9 9 9
17 17 17 17 17 17 16 16 16 16 16 16 16 16 16 15 15 15 15 15 14 14 14 14 14 14 14 13 13 13 13 13 13 13 13 13 13 13 13 13 13 13 12 12 12 12 12 12 12 11 11 11 11 11 11 10 10 10 10 10 10 10 10 10 9 9 9 9 9
17 17 17 17 17 17 17 16 16 16 16 16 16 16 16 16 15 15 15 15 15 14 14 14 14 14 14 13 13 13 13 13 13 13 13 13 13 13 13 13 12 12 12 12 12 12 12 12 11 11 11 11 11 11 10 10 10 10 10 10 10 10 10 9 9 9 9 9 8
17 18 17 17 17 17 17 17 16 16 16 16 16 16 16 16 16 15 15 15 15 14 14 14 14 14 14 13 13 13 13 13 13 13 13 13 13 13 12 12 12 12 12 12 12 12 12 11 11 11 11 11 11 11 10 10 10 10 10 10 10 10 9 9 9 9 9 8 7
18 18 18 17 17 17 17 17 17 16 16 16 16 16 16 16 16 16 15 15 15 14 14 14 14 14 14 13 13 13 13 13 13 13 13 12 13 13 12 12 12 12 12 12 12 12 11 11 11 11 11 11 11 10 10 10 10 10 10 10 9 9 9 9 9 9 8 7 7
18 18 18 18 17 17 17 17 17 17 16 16 16 16 16 16 16 16 16 15 15 14 14 14 14 14 13 13 13 13 13 13 12 12 12 12 12 12 12 12 12 12 11 11 11 11 11 11 11 10 11 11 11 10 10 10 10 10 9 9 9 9 9 9 9 8 7 6 6
18 18 18 18 18 17 17 17 17 17 16 16 16 16 16 16 16 16 16 15 15 15 14 14 14 14 13 13 13 13 13 13 12 12 12 12 12 12 12 12 11 11 11 11 11 11 11 11 10 10 10 10 10 10 10 10 10 9 9 9 9 9 9 9 8 7 6 6 6
19 18 18 18 18 18 17 17 17 17 17 16 16 16 16 16 16 16 16 15 15 15 14 14 14 14 13 13 13 13 13 13 12 12 12 12 12 12 12 11 11 11 11 11 11 11 10 10 10 10 10 10 10 10 10 10 10 9 9 9 9 9 9 9 8 7 6 6 6
19 19 19 18 18 18 17 17 17 17 17 16 16 16 16 16 16 16 16 15 15 15 14 14 14 13 13 13 13 13 13 13 12 12 12 12 12 12 12 11 11 11 11 11 11 10 10 10 10 10 10 10 10 10 10 10 9 9 9 9 9 9 9 8 8 7 6 6 7
19 19 19 19 18 18 18 17 17 17 17 17 16 16 16 16 16 16 16 15 15 15 14 14 14 13 13 13 13 13 13 13 12 12 12 12 12 12 12 11 11 11 11 11 10 10 10 10 10 10 10 10 10 10 10 10 9 9 9 9 9 9 9 8 7 7 6 6 7
19 19 19 19 19 18 18 18 17 17 17 17 17 16 16 16 16 16 15 15 15 15 14 14 14 13 13 13 13 13 13 13 12 12 12 12 12 12 12 11 11 11 11 10 10 10 10 10 10 10 10 10 10 10 10 9 9 9 9 9 9 9 9 8 7 6 6 6 7
19 19 19 19 19 19 18 18 18 18 17 17 17 17 16 16 16 16 15 15 15 15 14 14 14 13 13 13 13 13 13 12 12 12 12 12 12 12 12 11 11 11 10 10 10 10 10 10 10 10 10 10 10 10 9 9 9 8 8 8 8 8 8 7 7 6 6 6 7
19 19 19 19 19 19 18 18 18 18 18 17 17 17 16 16 16 16 15 15 15 15 14 14 14 13 13 13 13 13 13 12 12 12 12 12 12 12 11 11 11 11 10 10 10 10 10 10 10 10 10 10 10 10 9 9 8 7 7 7 8 8 7 7 7 6 6 6 7
19 19 19 19 19 19 19 18 18 18 18 18 17 17 17 16 16 16 15 15 15 15 15 14 14 14 13 13 13 13 13 12 12 12 12 12 12 12 11 11 11 10 10 10 10 10 10 10 10 10 10 10 9 9 9 8 7 7 7 7 7 7 7 7 7 6 6 7 7
20 20 20 19 19 19 19 19 18 18 18 18 17 17 17 16 16 16 15 15 15 15 15 14 14 14 13 13 13 13 13 13 13 12 12 12 12 12 11 11 11 10 10 10 10 10 10 10 10 10 10 10 9 9 8 7 6 6 6 7 7 7 7 7 6 6 7 7 7
20 20 20 20 20 19 19 19 19 18 18 18 17 17 17 17 16 16 16 15 15 15 15 15 15 14 14 13 13 13 13 13 13 12 12 12 12 12 11 11 11 10 10 10 10 10 10 10 10 10 10 9 9 8 7 6 6 6 6 7 7 7 7 7 6 6 7 7 8
20 20 20 20 20 19 19 19 19 18 18 18 18 17 17 17 16 16 16 16 15 15 15 15 15 15 14 14 13 13 13 13 13 12 12 12 12 11 11 11 11 10 10 10 9 9 9 9 10 9 9 9 8 7 6 6 6 6 6 7 7 7 7 6 6 6 7 7 8
20 20 20 20 20 20 19 19 19 18 18 18 17 17 17 17 16 16 16 16 15 15 15 15 15 15 14 14 14 13 13 13 12 12 12 12 12 11 11 11 11 10 10 9 9 9 9 9 9 9 9 8 7 7 6 6 6 6 7 7 7 7 7 6 6 6 7 7 8
21 21 20 20 20 20 19 19 18 18 18 18 17 17 17 17 16 16 16 15 15 15 15 14 14 14 14 14 14 13 13 13 12 12 12 12 11 11 11 11 10 10 10 9 9 9 9 9 9 8 8 7 7 6 6 6 6 6 7 7 7 7 7 6 6 6 7 7 8
21 21 20 20 20 19 19 18 18 17 17 17 17 17 17 16 16 16 15 15 15 15 14 14 14 14 14 14 14 13 13 13 12 12 12 11 11 11 11 11 10 10 9 9 9 10 9 9 9 8 7 7 6 6 6 6 6 7 7 7 7 7 7 7 7 7 7 7 8
21 20 20 20 19 19 18 18 17 16 15 16 17 17 16 16 16 15 15 15 15 15 14 14 14 14 14 14 13 13 13 12 12 12 11 11 11 11 11 10 10 10 9 9 9 9 9 9 8 7 7 6 6 6 6 6 6 7 7 7 7 7 7 7 7 7 7 7 8
20 20 19 19 19 18 18 18 16 15 15 16 16 16 16 16 15 15 15 15 15 14 14 14 13 13 13 13 13 13 12 12 12 12 11 11 11 11 11 10 10 10 9 9 9 9 8 8 7 7 7 7 6 6 6 6 7 7 7 7 7 7 7 7 7 7 7 8 8
19 19 18 18 18 18 18 17 16 15 15 15 16 16 16 15 15 15 14 14 14 14 13 13 13 13 13 13 13 12 12 12 12 11 11 11 11 11 11 10 10 9 9 9 9 8 8 7 7 7 7 7 6 6 6 6 7 7 7 7 7 7 7 7 7 7 7 8 8
18 18 18 18 18 18 17 17 16 15 14 15 15 16 15 15 15 14 14 14 13 13 13 13 13 13 13 12 12 12 12 12 11 11 11 11 11 11 10 10 9 9 9 8 8 8 7 7 6 6 7 7 6 6 6 7 7 7 7 7 7 7 7 7 7 7 8 8 7
17 16 17 17 17 17 17 16 15 14 14 14 15 15 15 14 14 14 14 13 13 13 12 12 12 12 12 12 12 12 12 11 11 11 11 11 11 11 10 9 9 8 8 8 8 7 7 6 6 7 7 7 6 6 6 7 7 7 7 7 7 7 7 7 8 8 8 7 7
16 16 16 17 17 16 16 15 14 14 14 14 15 14 14 14 14 13 13 13 13 12 12 12 12 12 12 12 12 11 11 11 11 11 11 11 11 10 9 9 8 8 7 7 7 6 6 6 7 7 7 7 6 6 7 7 7 7 7 7 7 7 8 8 8 7 7 7 7
15 15 16 16 16 16 15 14 14 13 13 13 14 14 14 13 13 13 13 12 12 12 12 12 12 12 12 11 11 11 11 11 11 11 11 11 10 10 9 8 8 7 7 6 6 6 6 7 7 7 7 7 7 7 7 7 7 7 7 7 7 8 8 7 7 7 7 7 7
15 15 15 15 15 15 15 14 14 13 13 12 13 13 13 13 13 13 12 12 12 12 11 11 11 11 11 11 11 11 11 11 11 10 10 10 10 9 8 8 7 7 6 6 6 7 7 7 7 7 7 7 7 7 7 7 7 7 8 8 8 8 8 7 7 7 7 7 7
14 14 14 15 15 15 14 13 13 13 12 12 12 12 12 12 12 12 12 12 12 11 11 11 11 11 11 11 11 11 11 10 10 10 10 9 9 8 7 7 6 6 6 6 7 7 7 7 7 7 7 7 7 7 7 7 7 8 8 8 8 8 7 7 7 7 7 7 6
14 14 14 15 15 14 13 13 13 12 12 12 12 12 12 12 12 12 12 12 12 11 11 11 11 11 11 11 11 11 10 10 10 9 9 8 8 7 7 6 6 6 7 7 7 7 7 7 7 7 7 7 7 7 7 7 8 8 8 8 7 7 7 7 7 7 6 6 6
13 13 14 14 14 13 13 13 12 12 12 12 12 12 12 12 12 12 12 12 11 11 11 11 11 11 10 10 10 10 10 9 9 8 8 7 7 7 7 6 7 7 7 7 7 7 7 7 7 7 7 7 7 7 7 8 8 8 7 7 7 7 7 7 6 6 6 6 6
13 13 13 14 14 13 13 12 12 12 12 12 13 13 13 12 12 12 12 11 11 11 11 11 10 10 10 9 9 9 9 8 8 7 7 7 7 7 7 7 7 7 7 7 7 7 7 7 7 7 7 7 7 7 7 7 7 7 7 7 7 6 6 6 6 6 6 6 6
12 12 13 13 13 13 12 12 12 12 12 12 13 13 13 12 12 12 11 11 11 11 10 10 10 9 9 9 9 8 8 7 7 7 6 6 7 7 7 7 8 8 7 7 7 7 7 7 7 7 7 7 7 7 7 7 7 7 7 6 6 6 6 6 6 6 6 5 5
12 12 12 12 12 12 12 12 12 12 12 12 12 12 12 12 12 12 11 11 11 11 10 9 9 9 9 8 8 7 7 7 7 7 7 7 7 7 8 8 7 7 7 7 7 7 7 7 7 7 7 7 7 7 7 7 7 6 6 6 6 6 6 5 5 5 5 5 4
12 12 12 12 12 12 12 11 11 11 12 12 12 12 12 12 12 12 11 11 11 11 10 9 9 9 8 8 7 7 7 6 7 7 7 7 7 8 7 7 7 7 6 6 7 7 7 7 7 7 7 7 7 7 6 6 6 6 5 5 5 5 5 5 4 4 4 4 3
12 12 12 12 11 11 11 11 11 12 12 12 12 12 12 11 11 11 11 11 10 10 10 9 9 9 8 8 7 7 7 7 7 7 7 7 7 7 7 7 6 6 6 7 7 7 7 7 7 7 7 6 6 6 6 5 5 5 4 4 4 4 4 4 4 4 3 3 3
Height
793 793 794 795 796 797 799 799 800 801 802 803 804 805 807 808 809 810 811 812 812 813 814 815 816 817 818 819 820 821 822 823 824 824 825 826 826 827 828 829 830 831 831 832 833 834 834 835 836 837 837 838 839 839 840 840 841 841 841 841 842 842 843 844 844 845 846 847 847
791 792 793 794 795 797 798 799 800 800 801 802 803 804 805 806 807 809 809 810 811 812 813 815 816 816 817 818 819 820 821 821 822 823 824 825 825 826 827 828 829 829 830 831 832 833 834 834 835 836 836 837 837 838 839 839 840 840 841 841 841 842 842 843 844 845 845 846 847
790 791 792 793 794 795 796 797 798 799 800 801 802 803 804 805 806 807 808 809 810 811 812 813 814 815 816 816 818 818 819 820 821 822 823 824 824 825 826 827 828 829 829 830 831 832 833 834 834 835 835 836 836 837 837 838 839 839 840 840 841 841 842 843 844 844 845 846 846
789 790 791 792 792 793 794 795 796 797 798 799 801 802 803 804 805 806 806 808 809 810 811 811 812 813 814 815 816 817 818 819 819 820 821 822 823 824 825 826 827 827 828 829 830 831 832 833 833 834 834 835 836 836 836 837 838 839 839 840 841 841 842 842 843 844 845 845 846
788 788 789 790 790 791 792 793 794 795 797 798 800 801 802 803 804 804 806 806 807 808 808 809 811 811 812 814 814 815 816 817 818 819 820 821 822 823 824 825 826 826 827 828 829 830 831 832 833 833 834 835 835 836 836 836 837 838 839 840 841 841 842 843 843 844 844 845 845
786 787 788 788 789 790 791 792 793 794 796 797 798 799 800 801 802 803 804 804 805 805 807 808 809 810 811 812 813 814 815 816 817 818 819 820 821 822 823 824 825 826 826 827 828 829 830 831 832 832 833 834 835 835 836 836 837 838 839 840 841 841 842 843 843 844 844 845 845
784 785 786 787 788 789 790 791 792 793 795 796 796 797 798 798 799 800 801 801 803 804 806 807 808 809 810 811 812 813 814 815 816 817 818 819 821 821 822 823 824 825 826 826 827 828 829 829 830 831 831 833 834 834 835 836 837 838 839 840 841 842 842 843 843 844 845 845 846
783 784 785 786 787 788 789 790 791 792 793 794 794 794 795 796 797 798 799 800 801 802 803 805 806 807 807 809 809 811 812 813 815 816 817 818 820 821 822 823 824 824 825 826 826 827 828 828 828 829 829 830 831 832 833 835 836 837 839 840 841 842 842 843 843 844 844 845 846
782 783 784 785 785 786 787 788 789 790 791 791 791 792 793 794 795 796 797 798 799 800 801 802 803 804 805 806 807 808 810 811 812 814 815 816 818 819 820 821 823 823 824 825 825 826 827 827 827 827 827 828 829 831 832 833 835 836 838 840 841 842 842 842 843 843 844 845 845
780 781 782 783 784 785 786 787 788 788 788 789 789 790 791 792 793 794 795 796 797 798 799 800 801 802 804 805 806 807 808 809 810 811 812 814 815 816 817 819 820 821 822 823 824 826 827 828 828 827 827 828 829 830 831 833 834 835 836 839 840 841 841 842 842 843 843 844 844
778 779 780 781 782 783 784 785 786 787 787 787 788 789 790 791 791 792 793 794 796 796 797 798 799 801 802 803 804 806 807 808 809 810 811 811 812 814 815 816 817 819 821 822 824 826 827 828 828 828 828 828 829 830 831 832 833 834 835 837 839 840 840 841 841 841 842 842 842
776 777 778 779 780 781 783 784 784 785 786 786 787 787 788 789 790 791 792 793 794 794 795 796 798 799 800 801 803 804 806 807 808 809 810 810 811 812 813 815 817 819 821 822 823 824 825 826 827 827 827 828 828 830 831 832 832 833 834 836 837 838 839 839 839 839 840 840 841
774 776 777 778 779 780 781 782 782 783 784 784 785 786 787 787 788 789 791 791 792 792 794 795 796 798 799 800 802 803 805 806 807 808 809 809 811 812 813 815 817 819 820 821 822 822 823 823 824 825 826 826 827 828 829 830 831 832 833 834 835 836 837 837 838 838 838 839 839
773 774 775 776 777 778 779 779 780 781 782 782 783 784 785 786 787 788 789 789 790 791 793 794 795 796 798 799 800 802 803 804 806 807 808 809 810 811 812 814 816 817 818 819 820 821 821 822 823 824 825 826 826 827 828 829 829 830 831 833 834 834 835 836 836 837 837 838 838
771 772 772 774 775 776 776 777 778 779 780 780 781 782 783 784 785 786 787 788 789 790 791 793 794 795 796 798 799 800 801 803 804 805 806 807 808 810 811 812 814 815 816 817 819 819 820 821 821 822 824 825 826 827 827 828 829 829 831 832 832 833 834 834 835 835 836 836 836
769 769 770 771 772 773 774 775 776 776 777 777 778 780 781 782 783 784 785 786 787 789 790 791 792 794 795 797 798 799 800 801 802 804 805 806 807 808 809 810 812 813 815 816 817 818 819 820 820 821 823 824 825 826 827 828 828 829 830 831 832 832 833 833 834 834 835 835 835
766 767 768 769 770 770 771 772 773 774 774 775 776 777 779 780 781 782 783 784 786 787 789 789 791 792 794 795 796 797 799 800 801 802 803 804 805 806 807 809 810 812 813 815 816 817 818 818 819 820 821 823 824 825 826 827 828 829 830 831 831 832 832 833 833 833 834 834 834
763 764 765 766 767 767 768 769 769 770 771 772 773 775 776 777 779 780 781 782 784 785 786 787 789 790 791 793 794 796 797 798 799 800 801 802 804 805 806 807 809 810 812 813 814 815 816 817 818 819 821 822 823 824 825 826 827 827 828 830 831 831 832 832 832 832 832 833 833
761 762 763 763 764 764 765 765 766 767 768 769 771 772 774 775 776 777 779 780 781 783 784 786 787 788 789 791 792 794 795 796 797 799 800 801 802 803 805 806 808 810 811 812 813 814 815 816 817 819 820 821 822 823 824 824 825 826 827 829 830 831 831 831 831 831 831 831 831
758 759 759 760 760 761 762 762 763 764 766 767 769 770 772 773 774 775 777 778 779 781 782 784 785 787 788 789 791 792 793 795 796 797 798 800 801 802 803 805 807 808 810 811 812 812 813 814 815 817 818 819 821 821 822 822 824 825 827 828 829 829 829 830 830 830 830 830 830
755 756 756 757 757 758 759 759 761 762 764 765 766 768 769 771 772 773 774 776 778 780 781 782 784 785 787 788 789 791 792 793 795 796 797 798 799 800 801 803 805 806 808 809 810 811 812 813 814 815 816 818 818 819 820 821 823 825 826 827 828 828 828 828 828 828 828 828 828
751 752 752 753 754 755 756 757 759 760 762 763 764 766 767 769 770 771 773 775 777 779 780 781 783 784 785 787 788 789 791 792 793 794 796 797 798 799 800 801 803 805 806 808 809 811 811 812 813 814 815 816 817 818 819 821 823 824 826 826 826 827 827 827 827 827 827 827 827
747 748 749 750 751 752 754 755 757 759 761 762 763 764 766 767 769 770 772 774 776 777 779 780 782 783 784 785 787 788 790 791 792 793 795 796 797 798 799 801 802 804 805 806 808 809 811 812 813 813 814 814 815 817 818 820 822 824 825 825 825 825 825 825 826 825 826 826 826
744 745 746 748 749 751 753 755 758 760 761 763 763 764 765 766 768 770 772 773 775 776 778 780 781 783 784 785 786 787 789 790 791 792 794 795 796 797 799 800 801 803 804 806 807 808 809 810 811 811 811 812 814 816 818 820 821 823 823 824 824 824 824 824 824 824 824 824 824
742 743 745 746 748 750 752 754 758 761 764 764 764 764 765 767 768 769 771 772 774 775 777 779 781 782 783 784 785 786 787 789 790 791 792 794 795 796 798 799 801 802 804 805 806 806 807 808 808 809 810 811 813 815 817 819 821 821 822 822 822 822 822 822 822 822 822 822 822
740 742 743 745 746 748 750 752 755 760 764 765 764 764 766 767 768 769 769 771 772 774 775 777 779 781 782 783 784 785 786 788 789 791 792 793 794 796 797 799 800 802 803 804 805 806 806 806 807 808 809 811 813 815 817 818 819 820 820 821 821 821 821 820 820 820 821 821 821
738 740 741 743 744 746 747 749 752 758 762 764 764 764 765 766 767 768 768 769 771 773 774 776 777 779 780 781 782 784 785 787 789 791 793 794 795 796 797 799 800 801 803 804 804 805 805 805 806 807 809 811 813 815 816 817 818 819 819 819 819 819 819 819 818 819 819 819 819
737 738 740 741 742 744 745 747 750 755 759 762 762 763 763 764 765 766 767 769 771 773 774 775 776 777 779 780 781 783 784 786 788 790 792 794 796 796 798 799 800 800 801 801 802 803 804 805 806 808 809 811 813 814 815 816 817 817 818 818 818 817 817 817 817 817 817 817 817
737 738 739 741 741 742 744 745 749 753 756 759 760 761 762 763 764 765 766 768 771 773 774 775 776 777 779 780 781 782 784 785 787 789 791 793 794 795 796 797 798 799 799 800 801 802 803 804 806 808 809 811 812 813 814 815 815 816 816 816 816 815 815 815 816 816 816 816 816
739 739 739 740 741 742 743 745 748 751 754 756 757 759 760 761 763 764 766 768 770 771 773 775 776 778 779 780 781 782 784 785 786 788 790 792 793 794 795 796 797 797 798 799 800 801 802 804 805 807 809 810 811 812 813 813 814 814 814 814 814 814 814 814 814 814 814 814 814
738 738 739 739 741 742 743 745 747 750 752 754 755 756 758 760 762 763 765 767 769 770 772 774 776 778 779 780 781 782 784 785 787 788 790 791 792 794 795 796 796 797 798 798 799 800 802 803 805 807 808 809 810 811 811 812 812 812 812 812 813 813 813 813 813 813 813 813 812
735 736 737 738 740 742 743 745 747 749 751 752 754 755 757 758 760 762 764 766 768 770 771 773 775 777 779 779 781 782 784 785 787 788 789 790 791 793 794 795 796 796 797 798 799 800 801 803 805 806 807 808 809 810 810 810 811 811 811 811 811 812 812 811 811 811 811 811 811
732 733 735 737 739 741 743 744 746 749 751 753 754 755 756 757 759 761 764 765 767 769 771 773 775 776 777 779 780 782 784 785 786 787 788 789 790 791 792 793 794 795 796 797 799 800 802 803 804 805 806 807 808 808 809 809 809 810 810 810 810 810 810 810 810 809 809 809 809
731 731 732 734 737 739 741 743 745 747 750 752 754 755 756 757 759 761 762 764 766 768 771 772 774 775 776 777 779 781 783 784 785 786 787 788 789 790 791 792 793 794 796 797 799 800 801 802 803 804 805 806 806 807 807 808 808 808 808 808 808 808 808 808 808 808 808 808 807
732 731 731 732 735 738 740 742 744 746 749 751 753 754 755 756 758 759 761 763 765 768 770 771 773 775 776 778 779 781 782 782 783 784 786 787 788 790 791 792 793 795 796 797 799 800 801 801 802 803 804 805 805 806 806 807 807 807 807 807 807 807 807 807 806 806 806 806 806
733 732 731 732 734 737 739 742 745 748 750 751 752 753 754 755 757 758 760 763 765 767 769 770 772 774 776 778 779 780 781 781 782 783 785 786 788 789 791 792 794 795 796 798 799 799 800 801 801 802 803 804 804 805 805 805 805 805 805 805 805 805 805 805 805 804 804 804 804
735 734 733 733 734 736 739 742 746 749 751 751 751 751 752 754 756 758 760 762 765 766 768 769 771 773 775 777 779 779 780 781 782 783 784 786 788 789 791 793 794 795 796 797 798 799 799 800 801 801 802 803 803 803 803 803 803 803 803 803 803 803 803 803 803 803 802 802 802
737 738 737 735 735 737 739 743 745 747 748 749 750 751 753 754 756 758 760 762 764 766 768 769 771 773 774 776 777 779 780 781 782 783 785 787 788 790 791 793 794 795 796 796 797 798 798 799 800 801 801 801 801 801 801 801 801 801 801 801 801 801 801 801 801 801 800 800 800
739 740 740 739 739 739 740 742 743 745 747 749 752 754 755 756 756 758 759 761 763 765 767 769 771 772 774 775 777 778 780 781 783 784 786 787 789 790 791 792 793 794 795 796 797 797 798 799 799 800 800 800 799 799 799 799 799 799 799 799 799 799 799 799 798 798 798 798 798
739 740 741 741 741 741 741 742 744 747 749 752 754 756 756 757 758 758 759 761 763 764 766 769 770 772 774 775 777 778 780 782 784 785 786 788 789 790 791 792 793 794 795 796 796 797 797 798 798 798 798 797 797 797 797 798 798 798 798 797 797 797 796 796 796 796 796 796 796
738 740 740 740 740 740 740 742 744 747 750 752 754 756 757 758 759 759 760 761 763 765 766 768 770 772 773 775 777 779 780 782 784 785 786 788 789 789 790 791 793 794 794 794 794 794 795 795 795 795 795 795 795 795 795 796 796 796 795 795 795 794 794 794 794 795 795 795 795
Wind_Speed
32 32 32 31 31 30 29 29 29 29 29 28 28 28 29 29 29 30 31 32 32 32 32 31 32 32 32 33 35 36 36 35 35 35 36 36 36 36 35 34 33 33 32 32 31 30 29 27 26 26 26 26 26 25 24 23 22 22 21 20 20 19 19 19 20 19 19 18 18
32 33 33 32 31 30 29 28 29 30 30 30 30 30 30 30 30 31 31 32 33 33 32 31 32 33 33 34 35 36 37 36 36 36 36 36 36 36 35 34 34 33 33 32 31 30 29 28 27 27 27 27 27 26 25 23 22 21 21 20 19 19 19 19 20 19 19 18 18
33 33 33 32 32 31 29 28 29 30 31 31 30 31 31 31 31 31 32 33 33 33 33 33 34 34 35 36 37 37 38 37 37 37 37 37 37 36 36 35 34 34 33 33 32 31 30 29 28 28 28 27 27 26 25 23 22 21 20 20 19 19 19 19 19 19 18 18 18
33 33 33 33 33 33 32 30 31 32 32 31 31 31 31 31 31 31 32 33 33 34 34 34 35 36 37 37 37 38 38 38 37 37 37 37 37 36 36 35 35 34 33 33 32 31 30 30 29 29 28 27 27 26 24 23 22 21 20 19 19 19 19 19 19 19 19 19 19
33 34 34 34 35 35 33 32 32 33 33 31 31 30 31 31 31 31 31 32 33 35 36 35 35 35 36 37 37 38 38 37 37 37 37 37 37 36 36 35 35 34 33 33 32 31 30 30 30 29 28 27 26 25 24 23 22 21 20 19 19 19 19 19 19 19 19 19 20
34 34 34 34 36 35 34 32 32 33 33 31 31 31 31 31 31 31 32 32 34 36 36 35 34 34 35 36 36 37 37 37 36 36 36 36 36 36 36 35 35 34 33 33 32 31 31 31 30 29 28 26 25 24 23 22 22 21 21 20 20 19 19 19 19 19 19 19 20
34 34 34 34 35 35 34 33 32 33 33 32 32 33 33 33 33 33 34 34 34 35 35 35 35 34 35 35 36 37 36 36 36 36 36 36 35 35 35 35 34 34 33 33 32 32 32 32 31 30 28 26 25 24 24 23 22 21 21 21 20 20 20 20 20 19 19 19 19
34 34 34 34 35 36 35 34 33 33 33 33 34 35 36 35 35 35 35 35 34 35 36 36 36 36 36 36 37 37 37 37 36 36 35 35 35 34 34 34 34 33 33 33 33 32 32 32 32 30 29 27 26 25 24 23 22 22 21 21 21 21 20 20 20 19 18 18 18
33 34 34 34 35 36 36 35 34 34 35 35 36 37 38 37 36 36 36 35 35 36 36 36 37 37 37 37 38 38 38 37 37 36 36 36 35 35 34 33 33 33 34 33 33 33 33 33 32 31 29 28 27 26 25 24 23 22 22 21 21 22 21 21 20 19 17 17 18
33 34 34 34 35 36 37 36 35 36 36 37 38 38 39 38 37 37 36 36 35 36 36 37 37 37 37 37 38 38 38 37 37 37 37 36 36 36 35 34 34 34 34 33 33 32 32 32 31 29 28 27 27 26 25 24 24 23 22 22 22 23 22 21 20 18 17 18 20
34 34 35 35 35 36 36 36 36 36 37 37 38 38 38 39 38 38 37 36 35 36 37 37 37 37 37 37 38 37 37 36 36 36 36 37 37 36 36 35 34 34 33 32 31 31 31 31 30 29 28 27 26 26 25 25 24 23 23 23 24 24 23 21 19 18 19 21 22
34 35 35 35 36 36 36 36 36 36 36 36 38 38 38 39 39 38 37 36 35 36 37 37 37 37 37 37 36 36 36 35 35 35 36 36 37 36 35 34 32 32 32 31 31 31 31 32 31 30 28 28 27 26 26 26 25 24 23 24 25 25 23 21 21 21 22 22 23
34 35 35 35 35 36 36 37 36 36 36 36 37 38 38 39 39 38 37 36 36 36 36 36 36 37 37 36 35 36 36 35 35 35 35 36 36 35 34 32 31 31 32 31 31 31 32 32 32 31 30 29 28 27 27 27 26 25 25 26 26 25 24 22 23 24 24 23 24
34 35 35 36 36 36 36 37 36 35 36 37 37 37 37 38 38 38 37 37 37 36 35 35 35 35 36 35 35 35 36 35 35 35 35 35 34 33 32 31 31 32 32 31 31 31 31 32 32 31 30 30 29 28 28 27 26 25 25 27 27 25 24 24 25 25 24 24 25
35 35 36 36 36 36 36 36 35 35 36 37 37 37 37 36 37 37 37 36 36 35 34 34 34 34 34 35 35 35 36 36 35 35 34 34 33 33 32 31 32 32 32 31 31 30 31 31 32 31 31 30 30 29 29 27 26 25 25 26 26 25 24 25 25 25 24 25 25
36 36 36 36 36 36 36 36 35 35 36 36 37 37 36 36 36 36 37 36 35 34 33 33 33 33 34 34 35 35 36 36 35 34 34 33 33 32 32 32 32 32 32 31 31 31 31 32 32 32 32 31 30 30 28 27 25 24 25 25 25 24 25 25 25 25 24 25 26
37 37 37 36 37 37 37 36 35 35 35 36 37 37 36 36 35 36 36 36 35 34 33 33 33 33 34 35 35 35 35 35 34 34 34 33 33 32 32 32 32 32 31 31 32 32 32 32 33 33 32 31 31 30 28 26 24 24 24 24 24 24 24 25 24 24 24 25 27
37 37 37 37 38 38 38 38 37 36 36 36 37 37 36 36 35 35 36 37 36 35 34 34 34 34 35 35 35 35 34 34 34 34 33 33 32 32 31 31 31 31 31 32 33 33 33 33 33 33 32 31 30 29 28 26 25 25 25 24 24 24 24 24 23 23 24 25 27
37 38 38 38 39 39 39 39 39 38 37 37 36 36 36 36 35 36 36 36 36 36 35 35 34 34 35 35 35 34 34 34 34 33 33 32 32 31 31 30 30 30 31 32 33 34 34 34 34 33 32 31 30 29 28 26 26 26 26 25 24 24 24 23 22 23 24 25 26
37 38 38 39 39 40 40 40 40 39 38 37 36 36 36 36 36 36 36 37 37 37 36 35 35 34 34 35 35 34 34 33 33 33 32 31 31 31 30 30 30 30 32 33 34 34 35 34 34 33 32 31 30 29 27 26 26 26 25 25 25 24 23 22 22 23 24 25 26
38 38 39 40 40 40 40 40 40 39 38 37 37 37 37 37 36 36 37 37 37 36 36 36 35 34 34 34 34 34 33 32 32 32 32 31 31 31 31 31 31 31 32 33 34 34 34 33 33 33 32 31 30 28 27 25 25 25 25 25 25 24 23 22 22 23 24 24 25
38 39 40 41 41 41 40 40 39 38 37 37 37 37 37 37 36 36 36 36 36 36 37 37 35 34 34 34 34 34 33 32 31 31 31 31 31 31 31 31 31 32 32 33 33 32 32 32 32 32 32 31 29 27 25 24 24 24 25 25 25 24 23 23 23 24 24 24 24
40 40 40 41 41 41 40 39 37 37 36 35 36 36 36 36 36 35 35 35 35 36 36 35 34 34 33 33 33 33 32 31 31 31 31 31 31 31 31 31 31 32 32 32 32 32 31 31 31 31 31 31 28 26 24 24 24 24 25 26 25 25 24 23 24 25 26 25 23
40 40 40 39 39 38 37 35 33 32 32 33 34 35 35 35 35 34 34 34 34 34 34 33 32 32 32 32 32 32 32 31 31 31 30 31 31 31 31 31 31 31 31 32 33 33 32 32 32 31 31 29 27 25 24 23 24 25 25 26 26 25 24 24 25 27 28 27 24
40 39 37 36 35 34 33 31 28 26 27 30 33 33 33 32 32 33 33 33 33 33 32 31 30 30 31 31 31 31 32 31 31 31 31 31 31 31 31 30 30 30 30 31 32 33 33 34 33 32 29 27 25 23 23 24 24 25 25 26 25 25 25 25 27 29 30 29 26
37 35 33 32 31 30 29 28 26 24 26 30 32 31 30 30 30 31 32 32 33 32 31 29 29 30 31 31 31 31 31 31 30 30 30 30 30 30 30 29 28 28 29 30 31 32 33 33 33 31 28 25 24 23 23 24 24 25 25 25 25 25 26 28 29 31 30 28 26
34 31 29 28 28 28 29 29 27 26 27 29 30 30 30 30 29 29 30 31 31 31 30 28 29 30 31 31 31 31 31 30 29 29 28 28 28 29 29 28 28 28 28 29 30 31 31 31 30 28 26 24 23 23 23 24 24 24 24 24 25 26 28 30 31 31 29 27 25
31 29 26 26 27 29 30 31 29 27 26 28 29 30 30 29 29 28 29 29 27 26 27 27 29 30 30 30 31 31 30 30 29 28 27 27 28 29 28 28 27 28 29 30 30 30 29 28 27 25 24 23 23 24 24 24 24 24 24 25 26 27 29 30 29 28 26 24 23
27 26 26 26 27 29 30 30 29 26 26 27 29 30 30 29 28 27 28 27 24 23 23 25 26 27 28 29 30 30 29 29 28 27 27 28 29 29 29 28 28 28 29 30 30 29 27 26 24 23 22 22 23 24 24 24 24 24 24 25 27 28 28 27 26 24 23 22 22
23 23 24 27 28 28 28 27 25 25 26 28 29 30 29 27 27 26 27 26 24 23 23 23 23 24 26 28 28 28 28 28 27 27 28 29 29 29 29 29 28 28 28 28 28 27 26 24 23 22 22 22 23 24 24 24 24 24 25 26 27 27 26 24 23 22 22 22 22
22 22 23 24 25 26 25 24 23 23 24 27 28 28 28 27 26 26 26 26 25 24 24 23 22 23 26 26 26 26 26 26 26 27 28 29 29 28 28 28 28 27 27 27 26 26 24 23 22 21 21 22 23 23 23 23 23 24 24 25 25 24 23 22 21 21 21 22 22
24 23 23 22 23 24 24 24 24 23 23 24 26 27 27 27 27 27 26 26 24 22 21 21 21 24 26 25 24 24 23 25 26 27 28 28 29 29 29 28 28 27 26 26 25 24 22 21 21 21 21 21 22 22 22 22 23 23 23 22 21 21 20 21 21 22 22 23 23
26 24 24 24 25 26 26 26 25 23 21 21 23 25 27 27 27 26 26 26 23 21 19 20 22 24 25 24 22 21 22 25 27 27 28 28 29 30 30 29 28 27 26 25 23 22 21 21 21 21 21 21 21 21 22 22 22 21 20 20 20 21 21 22 23 23 24 24 24
25 26 26 29 30 29 28 27 25 23 21 21 23 26 27 27 27 26 26 25 22 19 18 20 22 23 23 22 20 21 24 27 27 27 28 28 30 30 30 29 28 26 25 23 22 21 21 21 21 20 20 20 21 21 22 22 21 20 19 20 21 22 23 23 23 24 24 24 24
25 27 29 32 31 30 29 27 25 24 23 22 24 26 27 28 28 27 26 24 20 18 17 18 17 18 19 20 21 24 27 27 27 27 28 29 30 30 30 28 27 25 23 21 21 20 20 20 19 19 19 20 21 21 21 21 19 19 20 21 22 23 23 23 23 23 23 23 23
23 26 30 33 32 31 29 26 23 21 19 19 24 27 28 28 27 26 24 20 17 16 16 16 15 16 19 21 23 25 26 27 28 28 29 30 30 29 28 26 24 23 21 21 20 19 19 18 18 18 19 20 20 20 19 19 19 19 21 21 22 22 22 21 21 21 20 20 20
20 23 28 32 33 30 25 20 17 17 19 22 27 29 28 26 24 22 19 16 13 13 14 15 16 19 22 24 24 25 26 28 29 29 29 29 28 27 25 23 22 21 20 20 19 18 17 17 17 18 18 19 19 18 17 17 18 19 20 20 20 20 19 18 18 18 18 18 18
15 17 22 28 28 24 19 17 19 23 27 29 27 25 23 22 19 17 16 14 12 13 15 17 20 23 25 27 27 27 27 28 28 28 27 26 25 23 22 20 20 20 19 18 17 16 16 16 17 17 17 17 17 16 16 17 18 19 19 19 18 17 17 16 16 16 16 17 17
13 14 16 18 18 18 19 20 23 26 27 25 18 16 16 17 16 15 15 15 14 16 18 21 23 25 27 27 28 27 27 26 26 25 24 22 21 20 19 19 18 18 16 15 15 15 15 16 16 16 16 15 15 16 16 17 17 17 17 16 16 15 15 15 15 16 16 16 16
14 15 15 14 15 17 20 21 22 23 22 17 13 12 13 14 15 16 17 17 17 19 21 23 25 26 27 27 27 27 26 24 23 22 21 20 19 18 18 17 17 15 15 15 15 15 15 15 15 14 14 14 14 14 14 15 14 14 14 14 14 14 14 14 14 15 15 15 15
15 16 16 15 16 18 20 21 22 22 20 16 14 14 14 15 17 18 19 20 20 21 22 23 25 26 26 26 26 25 24 23 21 20 19 18 17 17 16 16 16 16 16 17 16 16 16 16 15 14 14 13 12 12 12 12 12 12 12 12 13 13 13 14 14 14 14 14 13
Wind_Direction
185 185 184 185 185 186 187 188 187 188 188 188 188 189 191 192 193 194 196 196 197 198 199 200 201 201 201 202 201 202 203 204 204 204 204 204 205 205 205 205 205 205 205 205 205 205 204 205 206 207 207 207 207 206 205 204 203 202 202 202 204 207 210 212 212 213 214 216 218
187 187 187 187 187 188 189 190 190 190 190 191 191 192 193 194 195 196 197 198 199 199 200 201 202 202 203 204 204 204 205 205 206 206 205 205 206 206 206 206 206 206 206 205 205 205 205 206 207 208 208 208 206 205 205 204 203 202 202 202 204 207 210 211 213 213 215 216 218
189 189 189 189 189 190 190 191 192 192 193 193 193 194 195 195 197 198 199 199 200 200 200 201 202 204 205 206 206 206 206 207 207 206 206 206 206 206 206 206 206 206 206 206 206 206 206 207 208 209 209 208 207 205 204 204 203 203 203 204 205 207 209 210 211 213 214 216 218
191 191 191 191 191 192 192 193 194 194 194 194 195 195 196 197 198 199 200 200 201 201 201 202 203 204 205 206 206 206 206 207 207 207 206 206 206 207 207 207 207 206 206 206 206 207 208 209 210 210 209 209 207 206 205 204 205 205 207 207 208 208 209 210 210 212 215 218 219
193 194 194 194 194 194 195 195 196 196 195 196 196 197 198 199 200 200 201 201 202 202 203 203 203 204 205 206 206 206 206 206 207 207 207 206 206 207 207 207 207 207 207 207 207 208 209 210 210 210 210 211 209 208 206 206 206 208 209 211 212 212 212 211 212 214 217 220 221
195 196 196 197 197 196 196 197 197 197 196 196 197 198 199 200 201 201 201 202 203 204 204 204 204 204 205 205 206 205 205 206 206 207 207 207 207 207 207 207 207 207 207 207 208 209 211 211 210 210 210 212 212 210 208 208 208 210 212 213 215 215 215 214 215 217 220 223 225
197 197 198 199 198 198 198 198 198 198 197 198 198 199 200 201 202 202 203 204 204 204 204 204 204 204 205 205 205 205 205 206 206 207 207 207 207 207 207 207 208 208 208 208 209 210 211 211 210 209 210 212 212 210 209 209 210 211 213 215 217 218 218 218 219 221 224 227 229
199 199 200 200 200 200 199 199 199 199 199 200 201 202 202 203 203 204 204 204 204 204 204 204 205 205 205 205 205 205 205 206 206 206 207 207 207 207 207 208 208 209 209 209 210 210 211 211 210 209 209 209 208 208 208 208 210 212 215 217 219 220 220 221 222 224 227 231 234
200 201 202 202 202 202 201 201 201 200 200 202 203 204 204 204 204 204 204 204 205 205 205 204 205 206 206 206 205 205 205 205 206 206 206 207 207 207 206 207 209 210 210 210 211 212 212 211 210 210 209 208 206 206 207 207 208 211 215 218 221 222 223 223 224 226 229 233 237
201 202 203 203 204 204 203 203 203 203 203 204 205 206 206 206 206 206 206 206 206 205 205 205 205 206 206 206 206 205 205 205 206 206 206 206 206 206 206 207 209 210 209 210 211 213 214 212 211 210 210 208 207 206 206 207 208 210 214 219 222 224 223 223 224 226 230 235 239
202 203 203 204 205 205 204 204 205 205 206 206 207 207 207 207 207 207 207 207 206 206 206 206 205 205 205 206 206 206 205 205 205 206 205 205 205 206 206 207 209 209 210 212 213 214 215 213 212 211 210 208 207 207 207 207 208 209 213 219 222 224 223 223 224 227 232 236 239
203 204 204 205 205 205 205 204 205 206 207 207 208 208 208 208 208 208 207 207 206 207 207 206 205 205 205 205 206 205 205 205 205 205 205 205 206 206 207 207 210 210 210 212 215 215 213 211 211 210 209 208 207 207 207 207 208 209 213 218 222 223 223 223 227 232 235 237 240
204 204 205 206 206 205 205 205 206 207 208 208 209 209 209 209 209 208 207 206 207 207 207 206 206 206 205 205 205 204 205 205 206 206 206 206 206 206 207 208 210 210 210 213 215 214 210 208 208 208 207 207 207 207 207 208 208 209 213 219 221 222 223 226 232 235 237 237 240
204 205 205 206 206 206 205 205 207 208 209 209 210 210 210 210 209 208 207 207 207 207 206 206 206 206 205 205 204 204 204 205 206 206 206 206 206 207 207 208 209 210 212 214 214 212 208 206 206 207 207 207 207 208 208 208 208 210 215 219 221 221 224 229 235 237 238 239 242
205 206 206 206 206 206 206 206 207 209 210 210 210 211 210 210 209 208 208 207 207 207 206 204 204 205 205 205 205 205 204 204 204 205 205 206 207 208 208 208 209 210 212 213 213 210 207 206 207 207 208 208 208 208 208 209 210 213 216 220 220 222 227 233 237 238 238 240 244
206 207 207 207 207 206 207 206 207 209 210 210 210 210 210 209 209 208 207 206 206 206 205 204 203 203 204 205 205 205 204 203 203 204 205 206 207 208 209 209 210 210 210 211 211 210 209 208 208 209 209 210 209 209 208 209 211 214 218 220 221 225 232 238 239 240 240 243 246
207 208 208 208 207 207 207 207 208 209 210 210 210 210 209 208 208 207 206 206 205 205 205 204 203 202 202 203 204 204 203 203 203 204 205 207 207 208 209 209 210 209 209 208 209 209 209 209 210 210 210 210 209 209 208 209 212 215 218 220 224 231 238 243 244 243 244 247 249
208 209 209 209 208 208 208 208 209 209 210 210 209 209 208 207 206 205 205 205 204 203 203 204 202 202 201 202 202 203 203 203 204 205 206 207 208 208 209 209 209 208 207 207 208 209 209 209 210 210 210 209 209 209 209 210 213 216 218 222 228 238 245 249 249 248 248 250 251
209 210 210 210 210 210 210 209 209 210 210 210 209 208 207 206 205 204 204 204 203 203 203 202 202 201 201 202 201 202 203 204 205 206 207 208 208 208 208 208 208 207 207 207 208 209 209 210 210 210 209 209 209 209 210 212 214 216 219 223 233 243 251 253 252 251 251 252 253
210 210 211 211 211 211 211 210 210 210 209 209 208 207 206 206 205 204 203 203 203 203 203 202 201 201 201 201 202 202 203 205 206 207 208 208 208 207 207 206 206 206 206 208 209 209 208 208 209 209 208 207 207 209 211 213 215 216 219 226 237 248 254 256 254 253 252 253 255
210 211 212 212 212 212 212 211 210 209 208 208 207 206 206 206 205 204 203 204 204 203 203 203 204 204 203 202 202 203 204 205 206 207 207 207 206 206 205 204 203 204 205 207 208 208 207 206 207 207 207 206 206 208 210 212 214 216 222 231 242 251 256 257 255 254 255 256 257
211 211 212 212 213 213 212 211 209 208 207 206 206 206 205 205 205 205 205 205 204 204 203 205 206 206 205 204 203 204 205 206 206 207 206 205 204 203 203 203 203 203 204 205 206 206 206 205 206 206 205 204 205 207 209 211 213 218 225 236 246 254 258 257 255 255 256 258 258
212 212 212 212 212 212 211 210 208 206 205 205 205 205 204 204 205 205 205 204 204 203 204 205 206 206 206 206 205 204 204 204 205 205 204 203 203 202 202 202 201 202 202 203 204 204 204 204 205 205 205 204 205 207 210 212 215 221 230 240 250 256 258 256 255 255 256 257 256
212 212 212 212 212 211 210 207 205 204 205 206 205 204 203 203 204 203 203 203 203 202 202 203 204 206 207 206 205 204 203 203 202 202 202 202 201 201 200 200 200 201 202 203 204 205 205 204 204 204 204 204 205 208 211 213 218 225 235 245 252 256 257 255 254 254 255 255 255
211 211 211 211 210 208 204 200 198 202 208 210 208 205 202 202 202 201 201 202 202 201 200 201 202 205 205 205 204 203 203 203 201 199 198 198 199 199 198 198 199 200 202 204 205 206 206 205 204 203 202 203 205 208 211 215 222 231 241 249 255 257 256 255 254 254 254 254 254
209 209 208 208 205 201 196 192 193 202 211 214 209 205 202 201 200 199 199 200 200 200 199 199 201 203 203 203 201 201 201 201 200 199 197 196 196 196 196 197 197 199 202 204 205 205 205 205 204 203 202 202 204 208 212 219 227 237 247 253 256 256 256 255 254 254 252 251 252
206 205 203 201 197 193 190 189 190 200 210 213 209 204 201 199 198 197 198 198 198 199 200 201 201 201 201 200 199 198 198 198 198 197 197 196 195 194 195 196 198 199 201 203 204 204 204 204 204 204 204 204 206 209 215 224 234 244 252 256 256 256 256 256 255 253 251 249 250
203 200 197 193 190 189 189 188 188 197 208 212 208 202 199 197 195 195 196 196 197 199 200 199 199 198 198 197 196 196 196 196 195 195 195 194 194 194 195 197 198 200 201 202 203 203 203 203 203 204 205 207 209 213 220 230 241 249 254 256 256 256 256 255 252 250 248 249 252
202 199 195 191 189 189 188 185 187 194 205 208 204 199 196 194 194 193 193 192 194 196 196 195 195 195 194 193 194 194 194 193 192 193 194 193 193 194 196 197 198 199 200 201 202 202 202 202 202 204 208 212 215 219 226 236 245 251 255 256 256 255 252 249 247 247 249 253 257
204 201 197 193 192 191 188 183 184 191 198 199 196 193 191 191 190 189 188 187 188 189 189 189 190 191 191 190 190 190 189 190 191 191 192 192 193 194 196 196 197 197 199 200 200 200 200 201 203 207 213 217 220 225 232 241 247 252 254 255 253 250 247 245 247 251 256 261 265
201 197 191 189 189 188 184 180 179 181 185 188 187 186 185 184 183 182 182 180 180 181 183 185 188 188 188 187 186 185 186 187 189 190 191 192 192 193 194 195 196 196 197 198 198 199 200 202 208 214 219 222 225 231 238 244 248 251 252 251 248 247 247 251 256 261 266 269 273
193 190 185 184 183 180 176 172 171 171 173 176 177 177 177 176 176 176 176 175 175 176 179 182 186 185 183 182 182 184 186 187 189 190 191 191 192 193 194 195 196 196 197 197 198 200 204 209 216 221 223 225 230 235 241 245 247 248 248 249 250 254 260 265 269 272 274 276 278
187 183 180 177 175 172 169 165 165 165 166 167 169 168 167 167 168 168 169 170 171 173 176 180 182 180 179 179 183 187 188 188 189 190 191 191 193 194 195 195 196 196 197 198 201 206 213 220 223 225 226 229 233 238 241 243 244 246 249 255 262 267 271 273 275 275 276 277 278
177 173 170 169 168 166 163 161 161 161 161 162 162 163 162 160 160 162 164 166 168 172 176 177 178 179 181 184 191 194 191 188 189 190 191 193 194 195 194 195 196 197 199 202 209 216 223 227 227 227 228 232 236 238 240 240 243 248 255 262 266 268 269 270 272 273 275 276 278
167 163 161 161 162 161 159 158 158 156 155 156 158 160 162 162 160 160 162 165 168 172 175 176 179 183 187 190 196 193 189 188 190 192 193 194 195 194 195 195 197 200 204 211 219 226 229 229 228 229 231 234 236 236 237 240 246 253 259 262 264 266 267 269 271 273 275 278 280
162 158 155 156 157 157 156 154 155 157 161 166 164 164 164 165 164 163 164 167 171 174 178 181 185 188 190 192 191 190 190 191 192 193 195 195 195 195 196 198 202 207 214 222 228 230 230 229 229 230 231 233 233 235 238 244 251 257 261 263 265 267 269 271 274 277 279 282 284
160 155 154 154 155 155 156 161 171 181 184 179 171 168 167 168 169 172 176 180 182 184 186 190 190 191 191 192 190 191 193 195 194 193 193 195 195 196 199 204 210 217 223 228 230 229 227 226 226 227 228 229 232 237 243 250 256 260 263 266 268 270 273 276 279 282 285 286 288
172 166 159 155 157 162 172 185 192 190 182 174 170 169 172 175 180 187 193 198 201 199 195 194 192 191 192 193 193 193 195 196 195 193 192 194 196 200 205 212 219 224 227 228 226 224 222 221 220 222 225 230 236 244 251 257 261 264 267 270 273 275 278 281 283 285 286 287 288
193 191 182 175 176 182 189 191 187 182 177 173 176 179 180 183 189 199 207 211 212 207 198 191 191 192 193 193 193 192 192 193 194 195 196 198 203 209 215 220 223 224 224 222 220 217 216 216 218 223 231 239 248 255 260 264 267 269 272 275 277 279 280 281 283 284 285 285 286
207 209 209 211 204 192 181 175 173 175 179 185 194 198 195 194 198 203 207 208 205 199 193 190 191 193 194 194 192 190 190 192 195 199 203 208 213 218 220 221 219 217 213 210 209 208 210 215 222 230 239 247 255 260 264 267 269 271 273 274 276 276 276 277 278 280 283 284 286
210 211 209 204 192 180 171 167 170 177 186 199 210 214 212 208 202 197 194 194 191 189 187 189 191 193 194 194 193 193 193 195 200 205 210 214 217 218 217 214 210 205 202 203 204 208 213 219 227 234 240 245 250 254 258 261 263 263 265 267 269 271 273 275 277 279 282 285 288